Location: La Oliva
(42.2466°N, 2.9955°E)
Time: 07:42:13
(UTC+00:00)

Cosmos 405 Rocket - Pass Details

Date: 22 April 2021
Orbit: 489 x 553 km, 81.3° (Epoch: 07 May)

Event Time Altitude Azimuth Distance (km) Brightness Sun altitude
Rises 20:12:17 0° 344° (NNW) 2,712 7.2 -16.5°
Reaches altitude 10° 20:14:31 10° 338° (NNW) 1,806 6.3 -16.8°
Maximum altitude 20:18:20 46° 265° (W) 725 3.7 -17.4°
Enters shadow 20:21:32 13° 194° (SSW) 1,564 4.9 -17.9°
